Погода в Старопестерево

Россия / Кемеровская область (Кузбасс)     54°29′56″N   86°24′25″E
темп.,
°C
ветер,
м/с
пор.,
м/с
влажн.,
%
обл.,
%
осадки,
мм/ч
давл.,
гПа
погр.,
м
28 января, чт
чт2801:00−5зюз71591100 1.5 1025712
04:00−5з71395100 1.1 1027695
07:00−6з51195100 1.9 1029611
10:00−12с2396100 0.8 1031111
13:00−8юз1395100 1.7 1031282
16:00−6юз61095100 1.1 1029641
19:00−6юз61392100 2.3 1029675
22:00−6юз61390100 0.1 1027701
29 января, пт
пт2901:00−6юз61390100 0.3 1026764
04:00−6юз71587100 0.1 1024711
07:00−4юз81886100 0.1 1022808
10:00−4зюз101886100 0.1 1020960
13:00−5з91494100 1.4 1022989
16:00−4зюз71291100 0.4 1023829
19:00−5зюз51295100 0.8 1026590
22:00−6зюз51294100 0.3 1026436
30 января, сб
сб3001:00−7зюз51293100 0.6 1027334
04:00−8зюз51193100 0.1 1027361
07:00−8зюз51092100 0.1 1029311
10:00−8з4995100 0.3 1031370
13:00−14ссз4695100 0.6 1033225
16:00−17ссз3494100 0.1 1034241
19:00−22с2393100 0.1 103734
22:00−22ссз1292100 0.0 103920
31 января, вс
вс3101:00−25всв119393 0.0 103920
04:00−24в228940 0.0 103820
07:00−24в229020 0.0 103820
10:00−22вюв239641 0.0 103729
13:00−16вюв239429 0.0 1034123
16:00−14в129379 0.0 103236
19:00−15в228989 0.0 103020
22:00−14в2282100 0.0 102720
1 февраля, пн
пн101:00−13вюв2378100 0.0 102420
04:00−13вюв1273100 0.0 102220
07:00−13в1170100 0.0 102021
10:00−13ююв2278100 0.0 102121
13:00−8ююз128185 0.0 1021117
16:00−8ююз118934 0.0 102221
19:00−10з239662 0.1 102541
22:00−12з2396100 0.1 102749